Regional Weather Roundup
Issued by NWS

Home | Current Version | Previous Version | Graphics & Text | Print | Product List | Glossary On
Versions: 1 2 3 4 5 6 7 8 9 10 11 12 13 14 15 16 17 18 19 20 21 22 23 24 25 26 27 28 29 30 31 32 33 34 35 36 37 38 39 40 41 42 43 44 45 46 47 48 49 50
823
ASUS45 KSLC 090510
RWRUT

UTAH REGIONAL WEATHER ROUNDUP
NATIONAL WEATHER SERVICE SALT LAKE CITY UT
1000 PM MST THU DEC 08 2016

UTZ001>011-023>025-090600-

NORTHERN UTAH

CITY           SKY/WX    TMP DP  RH WIND       PRES   REMARKS
BRIGHAM CITY     N/A     24  21  88 CALM      30.19R VSB 1
HILL AFB       LGT SNOW  25  21  86 CALM      30.17R FOG
LOGAN          LGT SNOW  20  19  96 CALM      30.16R FOG
OGDEN          LGT SNOW  24  22  91 NE7       30.18R VSB 3/4 WCI  16
SALT LAKE CITY CLOUDY    28  23  81 NW7       30.18R WCI  21
WENDOVER       CLOUDY    23  18  80 SW5       30.17F WCI  17
HEBER CITY     CLOUDY    30  28  93 CALM      30.15R

$$

UTZ011>015-024>027-090600-

CENTRAL/NORTHEAST UTAH

CITY           SKY/WX    TMP DP  RH WIND       PRES   REMARKS
PROVO AIRPORT  MIX PCPN  31  25  78 CALM      30.19R
MOAB/CANYONLAN CLOUDY    25   6  44 N3        30.28S
DELTA          CLOUDY    30  14  51 CALM      30.18R
PRICE          MOCLDY    20  11  68 NW3       30.25R
RICHFIELD      MOCLDY    28  18  64 CALM      30.21S
ROOSEVELT      LGT SNOW  23  19  86 CALM      30.28R
VERNAL         CLOUDY    19  11  70 N5        30.24S WCI  12

$$

UTZ013>016-019>022-027-090600-

SOUTHERN UTAH

CITY           SKY/WX    TMP DP  RH WIND       PRES   REMARKS
BRYCE CANYON   CLEAR     12   7  80 SW6       30.26S WCI   3
CEDAR CITY     MOCLDY    32  18  56 NE9       30.23R WCI  24
MILFORD        CLOUDY    36  17  46 S18       30.21R WCI  26
ST GEORGE      CLOUDY    39  14  35 SE3       30.30R
HANKSVILLE     PTCLDY    25   5  42 CALM      30.32R
KANAB          CLEAR     30  18  59 CALM      30.32R
BLANDING       PTCLDY    30  13  48 N5        30.35S WCI  25

$$

REGIONAL REPORTS     COLORADO/ARIZONA

CITY           SKY/WX    TMP DP  RH WIND       PRES   REMARKS
CRAIG, CO      CLOUDY    22  13  68 E10       30.17S WCI  11
GRAND JUNCTION CLOUDY    26  16  65 CALM      30.28S
RIFLE, CO      CLOUDY    24  14  65 CALM      30.28R
MONTROSE, CO   CLOUDY    26  16  65 W3        30.28F
CORTEZ, CO     CLOUDY    29  22  75 NE5       30.30S WCI  24
COLORADO CITY    N/A     28  25  86 E7        30.30S WCI  21
PAGE, AZ       CLEAR     34   7  32 CALM      30.28S
GRAND CANYON   MOCLDY    29  25  85 CALM      30.31R
KINGMAN, AZ    CLOUDY    46  23  40 E5        30.26S
FLAGSTAFF, AZ  CLEAR     30  25  81 CALM      30.31R

$$

REGIONAL REPORTS    NEVADA/IDAHO/WYOMING

CITY           SKY/WX    TMP DP  RH WIND       PRES   REMARKS
LAS VEGAS, NV  MOCLDY    50  11  20 CALM      30.26F
ELY, NY        MOCLDY    29  13  51 SW10      30.21R WCI  20
ELKO, NV       CLOUDY    28  25  88 SW6       30.10R WCI  22
POCATELLO, ID  LGT SNOW  19  17  92 MISG      30.10R FOG
BURLEY, ID     LGT SNOW  23  22  96 NE10      30.05S FOG     WCI  12
FORT BRIDGER,  LGT SNOW   8   6  89 CALM      30.12F
EVANSTON, WY   LGT SNOW  18  14  84 SW8       30.07R FOG     WCI   8
ROCK SPRINGS,  LGT SNOW   9   6  88 W9        30.10R FOG     WCI  -4

$$




USA.gov is the U.S. government's official web portal to all federal, state and local government web resources and services.